Погода во Владимире

Россия / Владимирская область     56°07′44″N   40°24′23″E
темп.,
°C
ветер,
м/с
пор.,
м/с
влажн.,
%
обл.,
%
осадки,
мм/ч
давл.,
гПа
погр.,
м
25 июля, вс
вс2500:00+14сз225587 0.0 101729
03:00+10сз22695 0.0 101915
06:00+12сз11655 0.0 102044
09:00+19юз224591 0.0 1020555
12:00+20зюз243942 0.0 10201363
15:00+21зюз453657 0.0 10202054
18:00+19зюз344885 0.0 102091
21:00+15зсз226650 0.0 102125
26 июля, пн
пн2600:00+15зюз226191 0.0 102223
03:00+16юз3558100 0.0 1022114
06:00+16зюз2558100 0.0 1022133
09:00+20з244840 0.0 1023443
12:00+25зсз4633100 0.0 10222669
15:00+24з453649 0.0 10221591
18:00+23зюз4644100 0.0 1021367
21:00+19зюз375389 0.0 1021135
27 июля, вт
вт2700:00+19з385595 0.0 1021191
03:00+17з36674 0.0 1021123
06:00+17ссз26725 0.0 1022163
09:00+23ссз22475 0.0 1021540
12:00+27зсз353547 0.0 10202569
15:00+24ссз234680 0.0 1019235
18:00+23всв345511 0.0 1018216
21:00+18всв2269100 0.1 101821
28 июля, ср
ср2800:00+16ю248621 1.3 101870
03:00+15зюз118814 1.3 101810
06:00+17сз11825 0.1 101747
09:00+22ююз12570 0.1 1016452
12:00+28зюз343930 0.0 10141899
15:00+28зюз3537100 0.0 10121980
18:00+21з5972100 0.3 1012295
21:00+18зюз51191100 2.9 1012316
29 июля, чт
чт2900:00+17ю2794100 0.6 1010240
03:00+16вюв3798100 5.2 1008261
06:00+17ююв379797 0.6 1006383
09:00+17ю2396100 0.8 1005296
12:00+18юз2696100 1.1 1005359
15:00+20зсз588882 2.8 1005755
18:00+21зсз588633 1.4 1005822
21:00+17з36960 1.8 1005126